TimeGMT,TemperatureF,Dew PointF,Humidity,Sea Level PressureIn,VisibilityMPH,Wind Direction,Wind SpeedMPH,Gust SpeedMPH,PrecipitationIn,Events,Conditions,WindDirDegrees,DateUTC
12:00 AM,40,37,86,29.83,12,NW,8.9,,,,Partly Cloudy,310,2012-12-05 00:00:00
12:00 AM,39.2,37.4,93,29.83,6.2,NW,8.1,-,N/A,,Partly Cloudy,310,2012-12-05 00:00:00
12:30 AM,39.2,37.4,93,29.83,6.2,NW,8.1,-,N/A,,Partly Cloudy,320,2012-12-05 00:30:00
1:00 AM,41.0,35.6,81,29.83,6.2,NW,11.5,-,N/A,,Partly Cloudy,310,2012-12-05 01:00:00
1:30 AM,39.2,35.6,87,29.83,6.2,NW,11.5,-,N/A,,Partly Cloudy,320,2012-12-05 01:30:00
2:00 AM,39.2,35.6,87,29.86,6.2,NW,12.7,-,N/A,,Partly Cloudy,320,2012-12-05 02:00:00
2:30 AM,39.2,35.6,87,29.86,6.2,NW,13.8,-,N/A,,Partly Cloudy,320,2012-12-05 02:30:00
3:00 AM,37.4,33.8,87,29.89,6.2,NNW,12.7,-,N/A,,Partly Cloudy,330,2012-12-05 03:00:00
3:30 AM,37.4,33.8,87,29.89,6.2,NNW,13.8,-,N/A,,Partly Cloudy,330,2012-12-05 03:30:00
4:00 AM,37.4,33.8,87,29.89,6.2,NNW,12.7,-,N/A,,Partly Cloudy,340,2012-12-05 04:00:00
4:30 AM,37.4,32.0,81,29.92,6.2,North,10.4,-,N/A,,Partly Cloudy,350,2012-12-05 04:30:00
5:00 AM,35.6,32.0,87,29.95,6.2,North,10.4,-,N/A,,Partly Cloudy,350,2012-12-05 05:00:00
5:30 AM,35.6,32.0,87,29.95,6.2,NNW,8.1,-,N/A,,Partly Cloudy,340,2012-12-05 05:30:00
6:00 AM,34,32,89,29.98,12,NE,6.7,,,,Scattered Clouds,40,2012-12-05 06:00:00
6:00 AM,33.8,32.0,93,29.95,6.2,NE,5.8,-,N/A,,Partly Cloudy,40,2012-12-05 06:00:00
6:30 AM,32.0,30.2,93,29.98,6.2,North,5.8,-,N/A,,Partly Cloudy,10,2012-12-05 06:30:00
7:00 AM,32.0,30.2,93,29.98,6.2,NNW,5.8,-,N/A,,Partly Cloudy,340,2012-12-05 07:00:00
7:30 AM,32.0,30.2,93,30.01,-9999.0,NW,5.8,-,N/A,,Clear,310,2012-12-05 07:30:00
8:00 AM,32.0,30.2,93,30.01,-9999.0,NNW,5.8,-,N/A,,Clear,330,2012-12-05 08:00:00
8:30 AM,32.0,30.2,93,30.01,-9999.0,NW,5.8,-,N/A,,Clear,310,2012-12-05 08:30:00
9:30 AM,32.0,32.0,100,30.04,-9999.0,WNW,4.6,-,N/A,,Clear,300,2012-12-05 09:30:00
10:00 AM,33.8,32.0,93,30.04,6.2,Variable,1.2,-,N/A,,Partly Cloudy,0,2012-12-05 10:00:00
10:30 AM,35.6,33.8,93,30.04,6.2,West,3.5,-,N/A,,Partly Cloudy,280,2012-12-05 10:30:00
11:00 AM,39.2,33.8,81,30.06,6.2,West,4.6,-,N/A,,Partly Cloudy,280,2012-12-05 11:00:00
11:30 AM,41.0,35.6,81,30.06,6.2,WNW,3.5,-,N/A,,Partly Cloudy,290,2012-12-05 11:30:00
12:00 PM,42,34,66,30.07,25,West,4.5,,,,Scattered Clouds,260,2012-12-05 12:00:00
12:00 PM,42.8,33.8,70,30.06,6.2,West,3.5,-,N/A,,Partly Cloudy,260,2012-12-05 12:00:00
12:30 PM,42.8,35.6,76,30.06,6.2,WSW,5.8,-,N/A,,Partly Cloudy,250,2012-12-05 12:30:00
1:00 PM,42.8,35.6,76,30.06,6.2,SW,5.8,-,N/A,,Partly Cloudy,230,2012-12-05 13:00:00
3:00 PM,42.8,37.4,81,30.04,6.2,West,5.8,-,N/A,,Partly Cloudy,260,2012-12-05 15:00:00
3:30 PM,41.0,37.4,87,30.04,6.2,West,5.8,-,N/A,,Scattered Clouds,260,2012-12-05 15:30:00
4:00 PM,41.0,37.4,87,30.06,6.2,West,4.6,-,N/A,,Scattered Clouds,260,2012-12-05 16:00:00
4:30 PM,39.2,37.4,93,30.06,6.2,West,5.8,-,N/A,,Scattered Clouds,260,2012-12-05 16:30:00
5:00 PM,39.2,35.6,87,30.06,6.2,WSW,5.8,-,N/A,,Scattered Clouds,250,2012-12-05 17:00:00
5:30 PM,37.4,35.6,93,30.06,6.2,WSW,4.6,-,N/A,,Scattered Clouds,240,2012-12-05 17:30:00
6:00 PM,38,36,89,30.07,12,SW,4.5,,,,Scattered Clouds,230,2012-12-05 18:00:00
6:00 PM,37.4,35.6,93,30.06,6.2,SW,4.6,-,N/A,,Partly Cloudy,230,2012-12-05 18:00:00
6:30 PM,37.4,35.6,93,30.06,6.2,WSW,2.3,-,N/A,,Mostly Cloudy,240,2012-12-05 18:30:00
7:00 PM,37.4,35.6,93,30.06,6.2,South,1.2,-,N/A,,Mostly Cloudy,190,2012-12-05 19:00:00
7:30 PM,35.6,32.0,87,30.06,6.2,SSE,1.2,-,N/A,,Mostly Cloudy,160,2012-12-05 19:30:00
8:00 PM,35.6,35.6,100,30.06,6.2,South,2.3,-,N/A,,Mostly Cloudy,190,2012-12-05 20:00:00
8:30 PM,37.4,33.8,87,30.06,6.2,South,2.3,-,N/A,,Mostly Cloudy,180,2012-12-05 20:30:00
9:00 PM,35.6,33.8,93,30.06,6.2,SE,4.6,-,N/A,,Mostly Cloudy,140,2012-12-05 21:00:00
9:30 PM,35.6,33.8,93,30.06,6.2,SE,4.6,-,N/A,,Mostly Cloudy,140,2012-12-05 21:30:00
10:00 PM,35.6,32.0,87,30.06,6.2,SE,4.6,-,N/A,,Mostly Cloudy,140,2012-12-05 22:00:00
10:30 PM,33.8,32.0,93,30.06,6.2,SSE,4.6,-,N/A,,Mostly Cloudy,150,2012-12-05 22:30:00
11:00 PM,33.8,32.0,93,30.04,6.2,SE,4.6,-,N/A,,Partly Cloudy,130,2012-12-05 23:00:00
11:30 PM,33.8,32.0,93,30.04,6.2,SE,6.9,-,N/A,,Partly Cloudy,130,2012-12-05 23:30:00